Probability
0 0 0 0 0 0 0 0 0 1 4 6 10 14 17 20 22 25 29 33 36 38 39 36 34 35 37 38 39 38 36 35 34 32 31 31 32 30 25 20 17 17 20 22
0 0 0 0 0 0 0 0 0 1 3 7 11 16 19 20 22 25 28 31 33 35 36 36 34 33 34 35 36 35 34 33 31 29 30 31 31 30 24 19 17 17 19 22
0 0 0 0 0 0 0 0 1 2 6 11 15 19 21 21 23 25 26 26 27 28 30 33 33 32 32 32 32 31 30 27 24 25 29 31 31 30 26 20 17 17 18 21
0 0 0 0 0 0 0 1 3 6 11 15 18 20 22 23 24 24 23 22 22 22 25 29 31 32 33 33 31 28 24 20 20 24 28 31 32 32 28 22 17 16 17 19
0 0 0 0 0 0 0 2 4 8 13 15 16 18 20 22 22 21 20 19 20 21 25 29 31 32 32 32 29 24 20 18 20 24 27 30 31 30 26 21 18 17 17 18
0 0 0 0 1 1 2 3 5 7 10 12 12 14 16 17 19 18 16 16 19 23 25 29 31 31 30 30 27 22 18 18 20 23 25 26 27 25 22 19 18 19 18 17
0 0 0 0 1 2 2 4 5 6 8 9 10 11 12 15 17 18 17 18 21 23 23 24 27 28 28 27 25 21 18 18 21 23 23 22 22 22 21 20 19 19 19 18
0 0 0 0 0 1 1 3 5 7 9 9 9 10 12 15 18 18 19 20 21 22 20 20 21 23 23 22 21 21 20 20 21 21 21 21 21 22 22 21 20 19 19 19
0 0 0 0 0 0 0 1 4 7 9 10 10 10 12 14 15 14 15 18 20 20 20 19 19 20 19 18 18 20 21 21 19 17 17 18 19 20 22 22 21 20 19 18
0 0 0 0 0 0 0 1 4 7 9 10 10 9 10 12 12 11 12 15 16 18 19 20 19 18 17 17 18 19 20 18 14 11 11 12 13 14 17 18 18 17 16 14
0 0 0 0 0 0 0 1 4 8 9 9 8 7 8 10 11 12 13 14 14 16 17 18 18 17 16 16 17 17 16 14 10 7 6 6 6 7 9 10 10 11 9 7
0 0 0 0 0 0 0 1 4 7 8 7 6 6 7 9 11 12 12 12 13 14 14 15 14 13 12 12 12 12 13 11 8 5 3 3 3 3 3 3 3 3 2 1
0 0 0 0 0 0 0 1 2 4 5 4 4 6 8 9 10 9 9 10 11 11 11 11 9 9 9 9 8 9 10 10 8 5 3 3 3 2 1 1 1 0 0 0
0 0 0 0 0 0 0 0 2 3 3 2 2 4 7 9 9 8 8 10 10 9 8 8 7 8 8 8 7 7 8 9 8 7 5 4 4 4 3 2 1 0 0 0
0 0 0 0 0 1 1 0 1 2 2 1 2 4 7 8 8 7 7 9 9 7 5 6 7 8 9 8 5 5 6 8 9 7 6 5 5 5 5 4 1 0 0 0
0 0 0 0 1 2 2 1 0 1 1 1 3 5 7 8 7 5 5 7 8 7 5 5 5 6 7 6 3 2 4 6 7 6 5 4 4 4 4 3 1 0 0 0
0 0 0 0 1 2 2 1 0 0 1 2 3 4 6 6 5 4 3 4 6 6 5 4 3 3 4 4 3 2 3 4 4 3 3 3 3 3 3 2 1 0 0 0
0 0 0 0 0 1 1 1 0 0 1 2 2 2 3 3 3 2 2 2 3 4 4 2 1 1 2 3 3 3 3 3 2 1 1 2 3 3 2 1 0 0 0 0
0 0 0 0 0 0 0 0 0 0 1 1 1 1 1 1 1 1 1 1 1 2 3 2 1 1 1 3 4 4 3 3 3 2 1 1 2 2 1 0 0 0 0 0
0 0 1 0 0 0 0 0 0 1 1 1 0 0 0 1 2 2 1 0 0 1 1 1 2 2 2 3 5 5 4 4 5 4 2 0 1 1 0 0 0 0 0 0
0 0 0 0 0 0 0 0 0 1 1 1 0 0 1 2 2 2 1 0 0 0 0 0 1 2 3 3 4 4 4 5 5 4 2 1 1 1 0 0 0 0 0 0
0 0 0 0 0 0 0 0 0 0 1 1 0 0 1 2 1 1 0 0 0 0 0 0 0 1 2 2 2 3 3 4 3 2 1 1 2 1 0 0 0 0 0 0
0 0 0 0 0 0 0 0 0 0 0 0 0 0 1 1 1 0 0 0 0 0 0 0 0 0 1 1 0 1 3 3 3 1 0 1 1 1 0 0 0 0 0 0
0 0 0 0 0 0 0 0 0 0 0 0 0 0 0 0 0 0 0 0 0 0 0 0 0 0 0 0 0 1 2 3 3 1 0 0 0 0 0 0 0 0 0 0
0 0 0 0 0 0 0 0 0 0 0 0 0 0 0 0 0 0 0 0 0 0 0 0 0 0 0 0 0 0 1 1 2 1 0 0 0 0 0 0 0 0 0 0
0 0 0 0 0 0 0 0 0 0 0 0 0 0 0 0 0 0 0 0 0 0 0 0 0 0 0 0 0 0 0 0 1 1 2 1 0 0 0 0 0 0 0 0
0 0 0 0 0 0 0 0 0 0 0 0 0 0 0 0 0 0 0 0 0 0 0 0 0 0 0 0 0 0 0 0 1 2 3 2 1 0 0 0 0 0 0 0
Wind_Speed
3 3 1 3 5 5 2 5 6 7 7 8 8 7 6 6 6 6 6 5 4 4 5 4 4 4 4 5 6 7 7 7 8 7 6 6 6 6 6 6 6 5 4 5
4 4 4 4 5 4 4 2 1 2 3 4 2 4 4 4 6 7 6 5 4 3 4 5 5 5 4 3 4 5 7 7 7 6 6 6 6 6 5 5 5 4 4 5
3 5 5 4 3 2 3 4 1 2 3 1 4 4 4 3 4 5 5 3 2 3 4 4 4 5 5 4 4 5 6 6 6 6 6 7 7 6 6 6 5 4 4 5
0 3 3 8 3 3 5 5 4 2 2 3 4 4 3 5 6 4 4 3 3 3 3 3 3 3 4 4 4 4 4 5 5 5 6 6 6 7 6 5 5 5 5 5
3 1 5 6 4 1 3 4 5 3 3 4 5 7 4 2 3 4 4 4 3 3 3 3 3 3 4 4 4 3 4 4 5 5 5 5 6 7 6 5 5 4 4 4
3 3 5 5 6 3 6 2 4 2 2 2 4 4 2 2 0 1 2 2 2 1 2 2 2 3 5 4 4 3 4 3 3 4 4 4 5 4 3 4 4 4 4 4
3 4 6 5 7 4 3 4 3 1 2 2 2 4 4 2 1 2 2 2 2 2 1 1 2 3 4 4 3 4 3 2 2 3 4 4 3 3 3 3 3 3 3 3
2 3 6 5 4 2 4 3 0 1 1 2 1 1 1 2 2 3 2 2 2 2 1 0 1 3 3 2 2 2 2 2 2 2 2 2 2 2 2 3 3 2 2 2
4 6 5 2 1 1 2 2 1 1 0 1 2 0 0 1 1 2 2 1 1 2 1 1 1 2 2 2 1 2 2 2 2 2 1 2 2 3 3 3 3 3 2 2
2 3 3 2 3 3 3 2 1 1 1 1 1 1 1 1 1 1 1 1 1 1 1 1 1 2 2 2 2 2 2 1 2 2 1 1 1 2 2 3 3 3 3 3
2 4 4 4 3 3 3 4 3 3 2 1 1 1 2 2 2 2 2 1 1 2 2 3 2 2 2 2 2 1 1 1 1 2 2 1 1 1 2 3 4 4 4 4
6 6 3 5 4 2 2 3 2 2 2 2 1 1 1 2 3 2 2 1 1 1 1 2 1 1 2 2 2 2 1 1 1 1 1 2 1 1 3 1 2 3 5 5
7 5 5 5 3 2 2 2 3 2 1 2 2 2 3 3 3 2 2 1 2 3 3 3 2 2 2 2 2 2 2 2 2 2 2 2 2 2 0 2 3 2 2 4
5 3 4 4 4 3 3 3 3 3 3 3 3 3 3 2 2 1 2 3 3 3 3 3 3 3 3 2 2 2 2 3 3 2 3 3 3 3 3 2 1 1 2 3
5 5 6 5 4 4 3 3 3 3 4 3 2 2 2 2 3 3 3 3 2 2 2 3 3 3 2 2 2 2 2 2 2 2 2 2 2 2 2 3 2 2 0 1
5 4 4 4 5 5 4 4 4 5 4 4 3 4 4 4 4 3 2 2 2 3 3 3 3 3 2 2 1 1 1 3 2 1 1 1 2 3 3 3 2 2 2 2
3 4 4 5 5 5 4 4 5 4 3 3 4 4 3 2 1 2 2 2 3 3 3 3 3 3 2 2 2 1 1 2 2 1 2 2 2 2 2 3 3 2 2 2
4 5 5 5 5 4 4 4 3 2 2 2 2 1 2 2 3 3 3 2 1 1 2 3 3 2 1 1 1 1 1 1 1 1 1 1 1 1 2 2 2 2 1 1
2 3 3 3 3 4 3 3 2 2 1 1 1 1 2 2 2 2 1 0 0 1 3 2 2 2 1 1 0 1 1 1 0 0 1 2 2 1 2 2 2 1 1 1
3 2 1 1 2 1 1 1 2 1 1 2 2 1 1 1 1 1 1 1 2 3 2 1 1 1 1 1 1 1 1 1 1 1 1 1 1 1 2 2 2 2 1 1
3 3 2 2 2 2 1 1 1 1 1 2 2 2 2 2 2 2 1 1 3 2 1 0 1 0 1 1 0 0 1 1 1 1 1 2 1 1 1 2 2 2 2 1
2 2 2 2 1 1 2 2 1 1 1 0 1 1 1 1 1 1 1 2 2 2 0 1 1 0 0 1 1 0 0 1 1 1 1 1 2 1 1 2 2 1 1 1
1 1 1 1 1 2 2 1 1 1 1 1 0 1 2 2 2 2 2 2 1 1 1 1 1 1 0 0 1 1 0 1 1 1 1 1 1 2 2 2 1 1 1 1
1 2 2 2 2 2 2 3 2 1 1 1 0 0 0 0 1 1 2 2 2 1 1 1 1 1 1 1 1 1 1 1 1 1 1 1 1 1 1 1 1 1 1 2
2 2 2 2 2 2 2 2 2 2 1 1 1 1 1 0 1 1 0 1 1 1 1 1 1 1 1 1 1 1 1 1 2 2 2 1 1 1 1 1 1 1 1 1
2 2 2 1 1 1 1 1 1 1 0 1 1 1 1 1 1 1 1 1 1 2 1 0 0 0 0 1 1 1 1 1 1 2 2 1 1 1 1 1 2 1 1 1
2 2 2 3 3 2 1 1 1 1 1 1 1 1 1 1 2 1 1 1 1 1 0 0 0 1 0 0 1 1 2 2 2 1 1 1 1 1 1 1 1 1 1 1
Wind_Direction
223 252 309 317 308 320 287 201 194 228 215 222 205 180 173 161 146 126 115 116 131 146 151 151 157 168 169 175 176 179 183 192 202 201 199 202 207 202 201 201 204 203 207 216
345 344 351 330 321 322 316 302 237 197 260 257 173 111 119 139 138 134 128 125 122 134 145 154 159 162 163 176 181 174 183 199 204 197 193 197 203 198 198 203 206 203 213 217
306 319 6 316 295 339 7 353 76 188 230 178 102 116 141 137 129 137 124 117 150 163 159 163 168 170 170 179 181 178 186 193 198 200 199 200 204 198 202 204 199 201 215 219
215 20 257 248 278 76 71 25 23 86 125 131 134 146 132 124 126 127 124 150 192 177 161 163 164 168 165 147 162 182 191 197 200 200 206 202 198 202 207 203 204 208 212 219
126 204 273 297 324 1 91 9 0 71 77 73 81 71 37 44 129 147 160 166 180 182 163 152 153 161 145 147 152 168 202 202 198 195 199 202 203 208 204 199 203 211 213 214
148 175 233 260 303 314 96 31 332 71 92 91 75 78 274 286 107 104 121 141 131 120 112 132 172 155 142 151 160 192 220 209 197 182 184 200 202 203 201 202 208 211 222 221
176 206 253 278 309 15 95 238 280 78 116 102 129 192 219 224 175 153 141 135 117 102 112 167 182 148 154 158 177 198 207 199 196 179 180 193 190 192 194 199 206 218 227 231
158 189 250 310 17 83 213 235 61 69 95 106 121 109 146 133 150 148 136 126 137 129 143 219 142 142 161 183 197 179 175 169 164 162 180 184 183 204 201 192 202 220 224 249
185 210 241 304 105 190 160 106 82 84 316 134 122 149 347 97 154 169 161 168 162 156 171 242 216 150 164 233 208 171 166 168 159 156 174 184 193 201 203 191 190 204 207 222
5 285 302 348 38 41 50 41 15 52 81 109 136 206 245 248 249 207 194 209 179 119 177 220 215 176 194 217 198 167 172 185 181 170 198 230 219 208 201 198 194 200 203 214
291 287 329 337 350 359 10 12 20 24 19 84 138 244 236 240 256 238 217 231 224 189 210 226 210 199 209 187 148 157 189 204 202 196 190 220 258 258 220 219 203 193 203 200
235 238 220 264 285 328 350 329 319 337 345 339 307 262 270 247 245 231 221 222 210 217 248 242 218 213 218 185 158 154 182 236 217 209 210 193 192 323 345 296 256 219 211 199
223 232 221 247 274 293 274 279 287 291 266 286 276 257 256 244 235 226 221 212 208 213 228 235 208 218 223 200 170 169 193 221 221 214 209 199 188 180 239 345 358 327 246 227
235 231 264 265 268 276 274 276 274 270 260 246 250 250 240 234 225 220 227 226 217 211 225 229 214 222 223 192 180 198 207 220 220 220 216 204 194 193 187 186 202 313 304 249
252 232 234 251 260 267 272 278 287 281 277 265 249 232 218 210 214 226 238 226 206 203 218 211 213 231 224 196 200 220 222 220 232 232 214 203 192 188 188 188 185 193 201 290
259 265 269 271 268 265 268 263 260 263 264 262 243 228 226 221 218 219 228 207 189 208 218 213 224 235 204 174 193 250 264 256 251 225 220 216 195 182 185 185 182 181 193 207
254 269 276 277 269 263 255 253 253 255 244 242 249 241 229 219 229 243 246 230 203 203 201 201 218 231 204 174 187 221 236 257 255 238 225 216 201 192 188 181 176 172 196 208
218 236 245 252 260 264 268 261 246 235 225 230 241 240 239 215 215 233 248 251 205 262 245 219 203 188 144 127 181 233 231 240 241 237 231 197 183 178 173 168 170 172 186 195
281 278 278 268 264 253 246 240 245 236 233 167 145 216 235 223 215 229 246 94 76 275 274 240 192 159 176 235 243 226 213 244 266 246 189 172 160 156 157 152 161 183 172 169
314 308 307 313 306 263 231 255 274 261 210 168 160 165 190 238 234 199 161 181 219 229 239 236 143 165 222 238 206 214 223 217 177 172 198 195 178 174 167 161 160 163 169 172
343 356 15 12 349 341 355 343 294 259 244 179 173 188 203 219 205 188 165 240 275 261 244 157 125 160 291 308 272 191 210 196 172 172 179 187 177 173 171 170 171 176 179 182
347 10 13 22 26 340 331 337 4 16 349 327 184 182 185 236 230 214 217 224 247 263 227 131 145 174 328 356 59 57 229 170 148 151 168 174 169 172 174 167 173 185 189 191
1 20 6 357 311 291 316 353 24 50 56 44 0 206 209 224 213 182 243 259 223 202 169 155 175 189 211 77 105 105 79 86 113 142 168 179 178 177 171 163 168 177 189 199
351 341 333 335 355 14 353 337 355 14 56 75 66 343 206 207 323 249 212 223 205 179 164 176 182 182 128 93 102 102 104 110 122 130 148 164 166 161 162 162 163 171 175 172
341 337 343 1 5 347 320 329 4 15 24 13 357 347 330 179 189 247 205 148 161 144 134 171 168 170 115 119 132 135 139 146 146 137 137 151 169 159 159 159 167 175 180 185
341 334 329 331 323 314 320 334 352 346 15 4 3 352 348 4 48 73 88 112 137 132 129 164 201 202 127 147 163 165 154 143 132 130 137 138 137 140 152 152 158 176 177 183
340 341 354 359 350 343 342 358 11 1 14 67 33 358 16 49 65 62 66 80 98 110 121 138 124 114 119 143 137 139 133 129 124 121 124 127 133 141 147 151 164 171 162 159